Lid_Strength_Index
-0 -0 -0 -0 -1 -1 -0 -0 -0 -0 -1 0 1 0 0 -0 -0 -0 -0 0 1 1 0 1 1 0 2 2 2 2 1 1 3 2 1 -0 0 1 -0 -2 -2 -1 -0
-0 -0 -0 -0 -1 -0 -0 -0 -1 -0 -0 -0 0 0 0 0 -0 0 0 0 1 1 1 1 1 0 0 0 0 1 -0 -0 1 2 1 0 -0 -2 -2 -2 -2 -2 -2
-0 0 -0 -0 -0 -0 -0 -0 -1 -0 -0 -0 -0 0 1 1 1 0 0 0 0 0 0 0 1 0 0 0 -0 0 1 1 0 2 1 -0 -0 -1 -1 -1 -1 -2 -1
0 0 0 -0 -0 -0 -0 -1 -1 -1 -0 -0 -0 -0 0 0 0 0 0 0 0 0 -0 -0 -0 -0 0 -0 -0 -0 0 0 0 1 1 1 0 -1 -1 0 0 -0 1
0 1 1 -0 -0 -0 -0 -1 -1 -1 -0 0 -0 -0 -1 -0 0 -0 -0 -0 -0 -0 -0 -0 -1 1 3 1 -0 -1 -1 0 1 1 1 1 1 1 1 0 1 -0 0
0 0 0 -0 -0 -0 -0 -0 -0 -0 -0 0 0 -0 -0 0 7 5 1 -0 -0 -0 0 -0 -1 1 2 4 4 5 0 -1 -0 1 1 1 0 0 0 0 1 1 2
0 0 0 0 0 0 -0 -0 -0 -0 -1 -1 -1 -1 -0 -1 7 6 4 -1 -0 -0 -0 -0 -0 -0 -0 -1 5 5 5 5 4 -1 0 0 0 -0 -1 0 0 1 1
1 1 0 1 0 0 -0 -0 -0 -0 -0 -0 -0 -1 -1 1 8 7 4 -1 -1 -1 -1 -1 -1 -1 -1 -0 -0 -0 -0 -1 -1 -1 -1 -1 -1 -1 -1 -1 -0 -0 -0
1 1 0 0 0 0 0 0 -0 -0 -0 -0 -0 -0 -0 -0 8 9 4 -1 -0 -1 -0 -0 -0 -0 8 7 0 -0 -0 -0 9 8 8 9 10 9 5 -1 1 2 3
1 1 0 -0 0 0 -0 -0 -0 -0 -0 -0 -0 -1 1 -1 9 9 6 2 1 2 2 2 8 4 10 9 -0 -0 0 -0 1 2 1 5 8 5 10 3 3 4 4
0 0 0 -0 -0 -0 -0 -0 -0 -0 -0 -0 -0 -1 -1 -0 1 10 10 2 2 3 3 3 4 10 10 10 9 0 2 1 4 3 3 2 2 3 3 4 3 4 5
0 0 0 -0 -0 0 -0 -0 -0 -0 0 0 0 0 -0 -1 5 9 10 10 5 1 1 1 2 11 11 11 10 10 11 10 4 3 3 3 3 4 3 3 2 3 3
0 0 0 0 -0 -0 0 0 1 0 1 1 1 1 1 0 -0 8 10 11 10 1 -1 4 8 10 11 12 12 11 13 5 4 4 3 3 3 2 2 3 3 3 3
1 1 0 1 0 -0 0 0 0 1 1 1 1 1 1 0 0 0 2 4 9 5 5 2 4 6 7 6 5 6 5 3 3 2 3 3 3 3 3 4 4 4 6
1 1 1 1 1 1 0 0 0 -0 1 1 1 0 1 1 1 3 2 1 1 3 2 1 1 2 2 1 1 1 1 1 2 2 2 2 2 3 4 4 6 6 5
1 1 1 1 1 1 1 1 6 6 7 7 7 3 0 6 9 8 7 7 8 9 3 1 1 1 1 1 -0 -0 -1 3 1 3 4 4 6 7 7 7 6 6 6
1 1 1 1 1 1 1 1 1 3 8 9 9 9 9 6 10 9 10 11 12 9 2 0 1 1 1 0 -0 -0 2 4 4 5 7 8 9 8 7 6 6 6 6
1 5 1 1 1 1 1 1 1 1 1 1 9 8 10 10 10 11 11 10 6 6 1 1 1 0 1 2 3 5 6 7 8 8 7 7 7 7 7 7 7 6 6
1 1 1 1 1 1 1 1 1 1 2 2 1 6 9 11 11 12 12 2 1 1 1 1 1 2 4 5 7 7 7 8 8 7 7 7 7 7 7 7 6 10 8
1 5 3 1 1 1 1 1 1 1 1 1 1 1 3 5 2 2 0 0 1 1 1 3 5 7 7 7 8 8 8 9 8 7 7 7 7 7 7 6 5 4 4
1 1 5 1 1 1 1 1 1 1 1 1 1 2 8 1 1 1 1 1 2 3 5 7 6 5 5 8 7 6 7 7 8 8 8 8 7 7 5 4 4 4 4
1 1 1 1 1 1 1 1 1 1 1 1 1 3 12 0 1 2 3 5 6 5 5 5 6 7 7 7 7 7 8 8 8 8 7 6 5 4 4 4 4 4 4
1 1 1 1 1 4 2 1 1 1 1 1 2 3 2 3 4 4 4 4 5 6 6 7 7 8 8 8 8 8 8 8 7 6 5 5 5 4 4 4 4 4 4
1 1 1 1 1 1 1 1 1 4 2 3 3 2 3 3 4 4 5 6 8 8 8 9 9 9 9 8 8 8 7 6 5 5 4 4 5 5 4 4 4 4 5
1 1 1 1 1 1 2 1 2 2 3 3 3 4 4 6 7 8 7 8 9 9 9 9 9 9 8 8 8 7 12 12 7 10 4 4 4 4 4 4 4 3 4
2 1 1 1 2 2 3 3 3 3 4 5 5 7 8 9 10 10 10 9 10 10 9 9 9 8 8 8 8 12 12 11 8 11 5 3 4 4 4 4 4 4 4